Location: Unspecified
(50.0830°N, 0.0000°E)
Time: 07:38:54
(UTC+00:00)

N. Korean satellite - Pass Details

Date: 23 November 2019
Orbit: 456 x 506 km, 97.2° (Epoch: 07 December)

Event Time Altitude Azimuth Distance (km) Brightness Sun altitude
Rises 16:37:14 0° 156° (SSE) 2,578 10.3 -5.1°
Reaches altitude 10° 16:39:18 10° 153° (SSE) 1,706 9.3 -5.4°
Maximum altitude 16:42:55 59° 74° (ENE) 590 6.7 -5.9°
Drops below altitude 10° 16:46:36 10° 354° (N) 1,733 9.2 -6.4°
Sets 16:48:43 0° 351° (N) 2,625 10.1 -6.7°
